Zapata, TX

4:29 PM CDT on July 20, 2017 (GMT -0500)
Zapata

Weather History for KAPY - February, 2013

Change the Weather History Date:

Sunday, February 24, 2013

  Actual Average (KLRD) Record (KLRD)
Temperature  
Mean Temperature 66 °F -  
Max Temperature 80 °F 71 °F 98 °F (1917)
Min Temperature 53 °F 50 °F 31 °F (1968)
Cooling Degree Days 2    
Growing Degree Days 16 (Base 50)    
Moisture  
Dew Point 54 °F    
Average Humidity 66    
Maximum Humidity 91    
Minimum Humidity 43    
Precipitation  
Precipitation 0.00 in - - ()
Sea Level Pressure  
Sea Level Pressure 29.75 in    
Wind  
Wind Speed 7 mph (SE)    
Max Wind Speed 15 mph    
Max Gust Speed 22 mph    
Visibility 10 miles    
Events      
Averages and records for this station are not official NWS values.
T = Trace of Precipitation, MM = Missing Value Source: NWS Daily Summary

Daily Weather History Graph

Daily Weather History Graph

Search for Another Location

Airport or City:

Trip Planner

Search our weather history database for the weather conditions in past years. The results will help you decide how hot, cold, wet, or windy it might be!

Date:

Astronomy

Feb. 24, 2013 Rise Set
Actual Time 7:05 AM CST 6:35 PM CST
Civil Twilight 6:42 AM CST 6:58 PM CST
Nautical Twilight 6:14 AM CST 7:25 PM CST
Astronomical Twilight 5:47 AM CST 7:52 PM CST
Moon 5:47 PM CST (2/24) 6:01 AM CST (2/24)
Length of Visible Light 12h 16m
Length of Day
11h 29m
Waxing Gibbous, 99% of the Moon is Illuminated
Feb 24
Waxing Gibbous
Feb 25
Full
Mar 4
Last Quarter
Mar 11
New
Mar 19
First Quarter

Hourly Weather History & Observations

Time (CST) Temp. Heat Index Dew Point Humidity Pressure Visibility Wind Dir Wind Speed Gust Speed Precip Events Conditions
12:15 AM 56.3 °F - 40.8 °F 56% 29.89 in 10.0 mi ESE 4.6 mph - N/A   Clear
12:35 AM 57.6 °F - 44.1 °F 61% 29.88 in 10.0 mi SE 6.9 mph - N/A   Clear
12:55 AM 58.3 °F - 45.0 °F 61% 29.88 in 10.0 mi SE 8.1 mph - N/A   Clear
1:15 AM 58.1 °F - 45.5 °F 63% 29.87 in 10.0 mi SE 6.9 mph - N/A   Clear
1:35 AM 58.1 °F - 45.5 °F 63% 29.86 in 10.0 mi East 8.1 mph - N/A   Clear
1:55 AM 57.4 °F - 45.5 °F 65% 29.86 in 10.0 mi ESE 6.9 mph - N/A   Clear
2:15 AM 57.2 °F - 45.7 °F 65% 29.86 in 10.0 mi SSE 5.8 mph - N/A   Clear
2:35 AM 56.5 °F - 45.9 °F 68% 29.85 in 10.0 mi SE 5.8 mph - N/A   Clear
2:55 AM 56.3 °F - 46.0 °F 68% 29.85 in 10.0 mi SE 4.6 mph - N/A   Clear
3:15 AM 55.4 °F - 46.0 °F 71% 29.84 in 10.0 mi SE 4.6 mph - N/A   Clear
3:35 AM 55.0 °F - 45.9 °F 71% 29.84 in 10.0 mi SE 3.5 mph - N/A   Clear
3:55 AM 53.8 °F - 45.5 °F 74% 29.84 in 10.0 mi SE 4.6 mph - N/A   Clear
4:15 AM 54.1 °F - 46.0 °F 74% 29.83 in 10.0 mi SE 4.6 mph - N/A   Clear
4:35 AM 53.6 °F - 46.4 °F 77% 29.82 in 10.0 mi ESE 4.6 mph - N/A   Clear
4:55 AM 53.1 °F - 46.9 °F 80% 29.82 in 10.0 mi ESE 4.6 mph - N/A   Clear
5:15 AM 53.2 °F - 48.7 °F 85% 29.82 in 10.0 mi SE 4.6 mph - N/A   Clear
5:35 AM 54.1 °F - 51.4 °F 91% 29.81 in 7.0 mi ESE 4.6 mph - N/A   Mostly Cloudy
5:55 AM 55.6 °F - 53.1 °F 91% 29.81 in 7.0 mi ESE 4.6 mph - N/A   Overcast
6:15 AM 56.5 °F - 54.0 °F 91% 29.81 in 7.0 mi ESE 6.9 mph - N/A   Overcast
6:35 AM 57.2 °F - 54.0 °F 89% 29.81 in 7.0 mi ESE 5.8 mph - N/A   Overcast
6:55 AM 57.7 °F - 54.0 °F 87% 29.82 in 7.0 mi SE 3.5 mph - N/A   Overcast
7:15 AM 58.3 °F - 54.1 °F 86% 29.83 in 7.0 mi SSE 3.5 mph - N/A   Overcast
7:35 AM 59.0 °F - 54.1 °F 84% 29.83 in 7.0 mi SSE 3.5 mph - N/A   Overcast
7:55 AM 59.7 °F - 54.5 °F 83% 29.83 in 7.0 mi SSE 5.8 mph - N/A   Overcast
8:15 AM 60.8 °F - 54.5 °F 80% 29.84 in 7.0 mi SE 4.6 mph - N/A   Overcast
8:35 AM 61.2 °F - 54.1 °F 78% 29.84 in 10.0 mi SE 9.2 mph - N/A   Overcast
8:55 AM 61.7 °F - 54.0 °F 76% 29.85 in 10.0 mi SE 8.1 mph - N/A   Overcast
9:15 AM 62.6 °F - 54.0 °F 73% 29.85 in 10.0 mi SSE 9.2 mph - N/A   Overcast
9:35 AM 63.0 °F - 54.1 °F 73% 29.84 in 10.0 mi SE 6.9 mph - N/A   Overcast
9:55 AM 63.5 °F - 54.5 °F 72% 29.85 in 10.0 mi SSE 9.2 mph - N/A   Overcast
10:15 AM 63.9 °F - 54.5 °F 72% 29.85 in 10.0 mi SE 9.2 mph - N/A   Overcast
10:35 AM 64.4 °F - 54.9 °F 71% 29.84 in 10.0 mi SE 9.2 mph - N/A   Overcast
10:55 AM 64.4 °F - 55.4 °F 73% 29.84 in 10.0 mi ESE 9.2 mph - N/A   Overcast
11:15 AM 64.8 °F - 55.6 °F 72% 29.83 in 10.0 mi SE 6.9 mph - N/A   Overcast
11:35 AM 65.3 °F - 55.6 °F 71% 29.82 in 10.0 mi SE 8.1 mph - N/A   Overcast
11:55 AM 66.6 °F - 55.8 °F 68% 29.81 in 10.0 mi ESE 6.9 mph - N/A   Overcast
12:15 PM 70.0 °F - 55.6 °F 60% 29.79 in 10.0 mi SSE 8.1 mph - N/A   Mostly Cloudy
12:35 PM 70.5 °F - 55.2 °F 58% 29.78 in 10.0 mi SE 10.4 mph - N/A   Mostly Cloudy
12:55 PM 72.0 °F - 54.7 °F 54% 29.76 in 10.0 mi SSE 8.1 mph - N/A   Mostly Cloudy
1:15 PM 72.7 °F - 55.2 °F 54% 29.73 in 10.0 mi SE 12.7 mph - N/A   Mostly Cloudy
1:35 PM 75.2 °F - 55.2 °F 50% 29.72 in 10.0 mi ESE 11.5 mph - N/A   Overcast
1:55 PM 75.7 °F - 55.6 °F 49% 29.70 in 10.0 mi ESE 10.4 mph - N/A   Overcast
2:15 PM 77.2 °F - 55.9 °F 48% 29.69 in 10.0 mi SE 10.4 mph 16.1 mph N/A   Overcast
2:35 PM 77.9 °F - 56.3 °F 47% 29.68 in 10.0 mi SE 10.4 mph - N/A   Overcast
2:55 PM 80.1 °F 80.2 °F 55.8 °F 43% 29.66 in 10.0 mi ESE 15.0 mph 20.7 mph N/A   Mostly Cloudy
3:15 PM 80.1 °F 80.2 °F 55.8 °F 43% 29.66 in 10.0 mi SSE 12.7 mph 19.6 mph N/A   Scattered Clouds
3:35 PM 79.3 °F - 55.9 °F 44% 29.65 in 10.0 mi SE 11.5 mph 16.1 mph N/A   Scattered Clouds
3:55 PM 79.0 °F - 55.9 °F 45% 29.65 in 10.0 mi ESE 11.5 mph 19.6 mph N/A   Scattered Clouds
4:15 PM 79.2 °F - 56.3 °F 45% 29.63 in 10.0 mi SE 12.7 mph 17.3 mph N/A   Scattered Clouds
4:35 PM 79.3 °F - 56.1 °F 45% 29.61 in 10.0 mi SE 9.2 mph 20.7 mph N/A   Clear
4:55 PM 78.3 °F - 56.5 °F 47% 29.61 in 10.0 mi SE 13.8 mph 19.6 mph N/A   Clear
5:15 PM 77.9 °F - 56.7 °F 48% 29.61 in 10.0 mi SE 12.7 mph 17.3 mph N/A   Clear
5:35 PM 78.1 °F - 56.5 °F 47% 29.61 in 10.0 mi SE 13.8 mph 19.6 mph N/A   Clear
5:55 PM 77.0 °F - 56.5 °F 49% 29.60 in 10.0 mi SE 12.7 mph 21.9 mph N/A   Clear
6:15 PM 76.5 °F - 56.7 °F 50% 29.61 in 10.0 mi SE 9.2 mph - N/A   Clear
6:35 PM 76.1 °F - 57.2 °F 52% 29.63 in 10.0 mi SE 10.4 mph - N/A   Clear
6:55 PM 75.4 °F - 58.1 °F 55% 29.63 in 10.0 mi SE 6.9 mph - N/A   Clear
7:15 PM 74.5 °F - 58.1 °F 57% 29.64 in 10.0 mi ESE 6.9 mph - N/A   Clear
7:35 PM 73.2 °F - 58.5 °F 60% 29.63 in 10.0 mi ESE 6.9 mph - N/A   Clear
7:55 PM 72.5 °F - 58.6 °F 62% 29.63 in 10.0 mi East 6.9 mph - N/A   Clear
8:15 PM 71.6 °F - 58.8 °F 64% 29.64 in 10.0 mi ENE 5.8 mph - N/A   Clear
8:35 PM 70.7 °F - 59.0 °F 66% 29.63 in 10.0 mi East 8.1 mph - N/A   Clear
8:55 PM 70.7 °F - 59.4 °F 67% 29.63 in 10.0 mi East 8.1 mph - N/A   Clear
10:35 PM 67.3 °F - 60.8 °F 80% 29.61 in 10.0 mi ESE 5.8 mph - N/A   Clear
10:55 PM 66.7 °F - 61.5 °F 83% 29.60 in 10.0 mi ESE 5.8 mph - N/A   Clear
11:15 PM 67.3 °F - 62.1 °F 83% 29.60 in 7.0 mi SE 6.9 mph - N/A   Clear
11:35 PM 68.0 °F - 61.7 °F 80% 29.60 in 10.0 mi SE 6.9 mph - N/A   Clear
11:55 PM 67.1 °F - 61.3 °F 82% 29.58 in 10.0 mi SSE 8.1 mph - N/A   Clear